This is the latest recevied weather packets stored in our database for station/object W5ZYX. If no packets are shown the sender has not sent any weather packets the latest 10 day(s).
| Time | Temp. | Humidity | Pressure | Rain* | Wind** | Luminosity | Snow |
|---|---|---|---|---|---|---|---|
| 1777657837 | 13.89° C | 95% | 1011.7 hPa | 1.27 mm | - | - | - |
| 1777657543 | 13.89° C | 95% | 1011.8 hPa | 1.27 mm | - | - | - |
| 1777657236 | 13.89° C | 95% | 1012.4 hPa | 1.27 mm | - | - | - |
| 1777656936 | 13.89° C | 95% | 1013 hPa | 1.02 mm | - | - | - |
| 1777656648 | 13.89° C | 95% | 1013.6 hPa | 0.76 mm | - | - | - |
| 1777656340 | 13.89° C | 95% | 1013.8 hPa | 0.76 mm | - | - | - |
| 1777656036 | 13.89° C | 95% | 1014.2 hPa | 0.76 mm | - | - | - |
| 1777655749 | 13.89° C | 95% | 1014.5 hPa | 0.76 mm | - | - | - |
| 1777655436 | 13.89° C | 95% | 1014.7 hPa | 0.51 mm | - | - | - |
| 1777655136 | 13.89° C | 95% | 1014.9 hPa | 0.51 mm | - | - | - |
| 1777654850 | 13.89° C | 95% | 1014.7 hPa | 0.51 mm | - | - | - |
| 1777654537 | 13.89° C | 95% | 1014.7 hPa | 0.51 mm | - | - | - |
| 1777654237 | 13.89° C | 95% | 1014.6 hPa | 0.76 mm | - | - | - |
| 1777653951 | 13.89° C | 95% | 1014.5 hPa | 1.02 mm | - | - | - |
| 1777653636 | 13.89° C | 95% | 1014.4 hPa | 1.02 mm | - | - | - |
| 1777653338 | 13.89° C | 95% | 1014.1 hPa | 1.27 mm | - | - | - |
| 1777653053 | 13.89° C | 95% | 1014 hPa | 1.52 mm | - | - | - |
| 1777652737 | 13.89° C | 95% | 1014.2 hPa | 1.78 mm | - | - | - |
| 1777652437 | 13.89° C | 95% | 1014.7 hPa | 1.78 mm | - | - | - |
| 1777652162 | 13.89° C | 95% | 1015.2 hPa | 1.78 mm | - | - | - |
| 1777651836 | 13.89° C | 95% | 1015.2 hPa | 1.78 mm | - | - | - |
| 1777651536 | 13.89° C | 95% | 1015.2 hPa | 1.78 mm | - | - | - |
| 1777651259 | 13.89° C | 95% | 1015.4 hPa | 1.78 mm | - | - | - |
| 1777650936 | 13.89° C | 95% | 1015.9 hPa | 2.03 mm | - | - | - |
| 1777650636 | 13.89° C | 95% | 1015.8 hPa | 2.03 mm | - | - | - |
* Rain latest hour (hover to see other rain measurements)
** Current wind speed in m/s (hover to see current wind gust speed)